When you browse on this site, cookies collect data to enhance your experience and personalize the content and advertising you see.
Visit our Privacy Policy to learn more. By continuing to use the site, you agree to this use of cookies and data.
  • In Latvia
  • List of Countries
  • For 7 days
  • Water Temperature
  • Satellite Maps
  • Weather Map
  • Weather Widgets
  • user-avatar
    Login

    Hourly Weather Adelaide

    Today, 19 January, Saturday

    Time Temperature Precipitation Wind Pressure Humidity
    00:00 +19°C° 0 mm 4 mps 760 mmHg 76%
    01:00 +19°C° 0 mm 4 mps 760 mmHg 76%
    02:00 +18°C° 0 mm 3 mps 761 mmHg 76%
    03:00 +18°C° 0 mm 2 mps 761 mmHg 75%
    04:00 +18°C° 0 mm 3 mps 761 mmHg 74%
    05:00 +18°C° 0 mm 3 mps 762 mmHg 73%
    06:00 +18°C° 0 mm 3 mps 762 mmHg 72%
    07:00 +20°C° 0 mm 3 mps 762 mmHg 64%
    08:00 +22°C° 0 mm 3 mps 762 mmHg 56%
    09:00 +26°C° 0 mm 3 mps 763 mmHg 42%
    10:00 +27°C° 0 mm 3 mps 763 mmHg 40%
    11:00 +28°C° 0 mm 4 mps 762 mmHg 37%
    12:00 +29°C° 0 mm 4 mps 762 mmHg 34%
    13:00 +29°C° 0 mm 4 mps 762 mmHg 34%
    14:00 +29°C° 0 mm 5 mps 761 mmHg 35%
    15:00 +29°C° 0 mm 5 mps 761 mmHg 35%
    16:00 +27°C° 0 mm 5 mps 761 mmHg 39%
    17:00 +25°C° 0 mm 5 mps 761 mmHg 43%
    18:00 +23°C° 0 mm 6 mps 761 mmHg 48%
    19:00 +22°C° 0 mm 5 mps 762 mmHg 54%
    20:00 +20°C° 0 mm 5 mps 762 mmHg 60%
    21:00 +19°C° 0 mm 5 mps 762 mmHg 66%
    22:00 +19°C° 0 mm 5 mps 762 mmHg 66%
    23:00 +19°C° 0 mm 5 mps 762 mmHg 67%

    Tomorrow, 20 January, Sunday

    Time Temperature Precipitation Wind Pressure Humidity
    00:00 +19°C° 0 mm 4 mps 762 mmHg 68%
    01:00 +19°C° 0 mm 4 mps 762 mmHg 68%
    02:00 +19°C° 0 mm 4 mps 762 mmHg 69%
    03:00 +18°C° 0 mm 4 mps 762 mmHg 69%
    04:00 +19°C° 0 mm 4 mps 762 mmHg 67%
    05:00 +19°C° 0 mm 4 mps 761 mmHg 65%
    06:00 +19°C° 0 mm 4 mps 761 mmHg 63%
    07:00 +21°C° 0 mm 4 mps 761 mmHg 55%
    08:00 +24°C° 0 mm 3 mps 761 mmHg 47%
    09:00 +26°C° 0 mm 3 mps 761 mmHg 40%
    10:00 +28°C° 0 mm 3 mps 761 mmHg 35%
    11:00 +30°C° 0 mm 3 mps 761 mmHg 30%
    12:00 +33°C° 0 mm 3 mps 760 mmHg 25%
    13:00 +34°C° 0 mm 3 mps 760 mmHg 25%
    14:00 +34°C° 0 mm 3 mps 759 mmHg 26%
    15:00 +34°C° 0 mm 4 mps 759 mmHg 26%
    16:00 +33°C° 0 mm 4 mps 759 mmHg 33%
    17:00 +30°C° 0 mm 5 mps 759 mmHg 40%
    18:00 +28°C° 0 mm 5 mps 759 mmHg 47%
    19:00 +26°C° 0 mm 5 mps 759 mmHg 54%
    20:00 +25°C° 0 mm 5 mps 759 mmHg 61%
    21:00 +22°C° 0 mm 5 mps 760 mmHg 68%
    22:00 +22°C° 0 mm 4 mps 759 mmHg 68%
    23:00 +22°C° 0 mm 4 mps 759 mmHg 68%

    Day after tomorrow, 21 January, Monday

    Time Temperature Precipitation Wind Pressure Humidity
    00:00 +22°C° 0 mm 4 mps 759 mmHg 68%
    01:00 +22°C° 0 mm 4 mps 758 mmHg 69%
    02:00 +22°C° 0 mm 3 mps 758 mmHg 69%
    03:00 +22°C° 0 mm 3 mps 757 mmHg 69%
    04:00 +24°C° 0 mm 3 mps 758 mmHg 67%
    05:00 +24°C° 0 mm 2 mps 758 mmHg 65%
    06:00 +24°C° 0 mm 2 mps 758 mmHg 63%
    07:00 +27°C° 0 mm 2 mps 758 mmHg 56%
    08:00 +29°C° 0 mm 2 mps 758 mmHg 49%
    09:00 +31°C° 0 mm 1 mps 758 mmHg 42%
    10:00 +34°C° 0 mm 2 mps 757 mmHg 37%
    11:00 +36°C° 0 mm 2 mps 757 mmHg 31%
    12:00 +38°C° 0 mm 2 mps 756 mmHg 26%
    13:00 +38°C° 0 mm 3 mps 756 mmHg 26%
    14:00 +38°C° 0 mm 3 mps 755 mmHg 27%
    15:00 +37°C° 0 mm 4 mps 755 mmHg 27%
    16:00 +36°C° 0 mm 4 mps 755 mmHg 31%
    17:00 +35°C° 0 mm 4 mps 755 mmHg 34%
    18:00 +34°C° 0 mm 4 mps 755 mmHg 37%
    19:00 +31°C° 0 mm 3 mps 755 mmHg 43%
    20:00 +29°C° 0 mm 3 mps 756 mmHg 48%
    21:00 +27°C° 0 mm 3 mps 756 mmHg 54%
    22:00 +27°C° 0 mm 3 mps 756 mmHg 54%
    23:00 +26°C° 0 mm 2 mps 756 mmHg 55%

    22 January, Tuesday

    Time Temperature Precipitation Wind Pressure Humidity
    00:00 +26°C° 0 mm 2 mps 755 mmHg 55%
    01:00 +26°C° 0 mm 2 mps 755 mmHg 54%
    02:00 +26°C° 0 mm 2 mps 755 mmHg 53%
    03:00 +25°C° 0 mm 2 mps 754 mmHg 52%
    04:00 +26°C° 0 mm 1 mps 754 mmHg 50%
    05:00 +27°C° 0 mm 1 mps 754 mmHg 48%
    06:00 +27°C° 0 mm 1 mps 754 mmHg 47%
    07:00 +30°C° 0 mm 1 mps 755 mmHg 41%
    08:00 +33°C° 0 mm 1 mps 755 mmHg 34%
    09:00 +35°C° 0 mm 1 mps 755 mmHg 28%
    10:00 +37°C° 0 mm 2 mps 755 mmHg 27%
    11:00 +38°C° 0 mm 3 mps 754 mmHg 25%
    12:00 +38°C° 0 mm 4 mps 754 mmHg 24%
    13:00 +38°C° 0 mm 4 mps 753 mmHg 24%
    14:00 +38°C° 0 mm 4 mps 753 mmHg 23%
    15:00 +38°C° 0 mm 4 mps 752 mmHg 23%
    16:00 +37°C° 0 mm 4 mps 752 mmHg 25%
    17:00 +36°C° 0 mm 4 mps 753 mmHg 27%
    18:00 +35°C° 0 mm 4 mps 753 mmHg 29%
    19:00 +32°C° 0 mm 5 mps 754 mmHg 37%
    20:00 +28°C° 0 mm 5 mps 754 mmHg 45%
    21:00 +26°C° 0 mm 6 mps 755 mmHg 53%
    22:00 +24°C° 0 mm 6 mps 755 mmHg 53%
    23:00 +25°C° 0 mm 5 mps 755 mmHg 53%

    23 January, Wednesday

    Time Temperature Precipitation Wind Pressure Humidity
    00:00 +25°C° 0 mm 4 mps 755 mmHg 54%
    01:00 +23°C° 0 mm 4 mps 755 mmHg 53%
    02:00 +24°C° 0 mm 3 mps 755 mmHg 53%
    03:00 +24°C° 0 mm 3 mps 754 mmHg 53%
    04:00 +24°C° 0 mm 3 mps 755 mmHg 56%
    05:00 +22°C° 0 mm 4 mps 755 mmHg 58%
    06:00 +22°C° 0 mm 4 mps 755 mmHg 61%
    07:00 +25°C° 0 mm 4 mps 755 mmHg 53%
    08:00 +28°C° 0 mm 4 mps 755 mmHg 45%
    09:00 +30°C° 0 mm 4 mps 755 mmHg 37%
    10:00 +33°C° 0 mm 4 mps 755 mmHg 34%
    11:00 +34°C° 0 mm 4 mps 755 mmHg 30%
    12:00 +36°C° 0 mm 4 mps 754 mmHg 27%
    13:00 +37°C° 0 mm 4 mps 754 mmHg 26%
    14:00 +37°C° 0 mm 5 mps 753 mmHg 25%
    15:00 +39°C° 0 mm 5 mps 753 mmHg 25%
    16:00 +36°C° 0 mm 5 mps 753 mmHg 29%
    17:00 +35°C° 0 mm 5 mps 752 mmHg 33%
    18:00 +33°C° 0 mm 5 mps 752 mmHg 38%
    19:00 +32°C° 0 mm 5 mps 752 mmHg 41%
    20:00 +29°C° 0 mm 5 mps 753 mmHg 44%
    21:00 +28°C° 0 mm 4 mps 753 mmHg 47%
    22:00 +28°C° 0 mm 5 mps 752 mmHg 44%
    23:00 +29°C° 0 mm 5 mps 752 mmHg 40%

    24 January, Thursday

    Time Temperature Precipitation Wind Pressure Humidity
    00:00 +29°C° 0 mm 5 mps 752 mmHg 37%
    01:00 +29°C° 0 mm 6 mps 751 mmHg 37%
    02:00 +29°C° 0 mm 6 mps 751 mmHg 38%
    03:00 +29°C° 0 mm 6 mps 751 mmHg 38%
    04:00 +29°C° 0 mm 6 mps 751 mmHg 37%
    05:00 +29°C° 0 mm 6 mps 751 mmHg 35%
    06:00 +30°C° 0 mm 7 mps 751 mmHg 34%
    07:00 +33°C° 0 mm 6 mps 751 mmHg 29%
    08:00 +35°C° 0 mm 6 mps 750 mmHg 25%
    09:00 +39°C° 0 mm 6 mps 750 mmHg 21%
    10:00 +41°C° 0 mm 6 mps 749 mmHg 18%
    11:00 +45°C° 0 mm 5 mps 749 mmHg 16%
    12:00 +47°C° 0 mm 5 mps 748 mmHg 14%
    13:00 +47°C° 0 mm 5 mps 747 mmHg 14%
    14:00 +48°C° 0 mm 5 mps 747 mmHg 13%
    15:00 +48°C° 0 mm 5 mps 746 mmHg 13%
    16:00 +46°C° 0 mm 6 mps 746 mmHg 16%
    17:00 +44°C° 0 mm 7 mps 747 mmHg 20%
    18:00 +43°C° 0 mm 8 mps 747 mmHg 23%
    19:00 +38°C° 0 mm 6 mps 748 mmHg 35%
    20:00 +33°C° 0 mm 5 mps 749 mmHg 46%
    21:00 +28°C° 0 mm 4 mps 750 mmHg 58%
    22:00 +27°C° 0 mm 3 mps 750 mmHg 61%
    23:00 +26°C° 0 mm 3 mps 750 mmHg 64%
    Show more